Location: Boisratel
(50.5558°N, 1.8404°E)
Time: 06:01:06
(UTC+00:00)

Daily predictions for brighter satellites

Satellite Brightness Start Highest point End
(mag) Time Altitude Azimuth Time Altitude Azimuth Time Altitude Azimuth
Cosmos 2297 Rocket 2.3 16:18:08 10° NNW 16:23:45 58° NE 16:29:20 10° SE
Cosmos 2026 Rocket 4.3 16:17:47 10° NNW 16:24:02 77° W 16:30:20 10° S
Cosmos 2208 Rocket 4.0 16:22:26 10° NNW 16:27:36 69° ENE 16:32:46 10° SSE
JB-3 4.1 16:28:15 10° NNE 16:31:57 89° SE 16:35:34 10° SSW
MOS 1 Rocket 4.3 16:28:11 10° ESE 16:32:21 28° ENE 16:36:42 10° N
NOSS 3-2 (A) 3.2 16:27:58 10° SSW 16:32:58 69° SE 16:39:02 10° NE
NOSS 3-2 (C) 4.0 16:29:41 10° S 16:34:05 31° ESE 16:39:11 10° NE
Cosmos 1634 Rocket 4.0 16:28:40 10° S 16:34:51 80° E 16:41:03 10° NNE
Cosmos 1455 Rocket 3.8 16:32:08 10° SSW 16:36:22 54° WNW 16:40:41 10° N
NOSS 2-2 (D) 2.9 16:33:20 10° SSW 16:36:37 57° SE 16:39:34 10° NE
Cosmos 1602 Rocket 3.9 16:33:21 10° N 16:37:33 41° ENE 16:41:40 10° SE
Cosmos 2228 3.0 16:35:20 10° S 16:39:34 88° E 16:43:51 10° N
Cosmos 1315 Rocket 3.1 16:36:49 10° SSW 16:40:36 66° WNW 16:44:26 10° N
CBERS-1 4.0 16:36:01 10° SSE 16:41:08 83° ENE 16:46:17 10° NNW
Cosmos 2219 4.4 16:37:07 10° NNW 16:41:34 23° NE 16:46:02 10° E
Lacrosse 4 Rocket 2.7 16:43:18 10° WSW 16:47:01 33° NW 16:50:41 10° NNE
Cosmos 2279 Rocket 4.0 16:41:48 10° S 16:47:57 71° E 16:54:11 10° NNE
YAOGAN 1 4.1 16:45:41 10° E 16:48:12 16° ENE 16:50:44 10° NNE
NOSS 7 (H) 4.4 16:47:51 10° NNW 16:50:39 42° NE 16:53:35 10° ESE
Cosmos 1980 Rocket 3.9 16:48:28 10° SE 16:51:09 14° E 16:53:02 12° ENE
Cosmos 1844 Rocket 4.4 16:49:09 10° N 16:51:54 14° NNE 16:54:07 11° NE
Cosmos 405 Rocket 3.1 16:49:15 10° NNW 16:52:27 54° W 16:55:35 10° S
Meteor 1-28 Rocket 2.8 16:50:23 10° NNE 16:53:44 69° ESE 16:57:03 10° S
NOSS 2-2 (E) 2.7 16:50:52 10° SW 16:54:10 69° SE 16:56:34 15° NE
Intercosmos 24 4.0 16:51:59 10° NNW 16:55:53 72° W 16:59:24 10° S
BlueWalker 3 4.1 16:53:49 10° W 16:56:54 26° SW 16:59:59 10° SSE
GEOS 3 Rocket 3.9 16:54:13 11° NE 16:59:19 57° SE 17:04:35 10° SSW
Cosmos 2263 Rocket 2.8 16:55:04 10° NNW 17:00:15 35° NE 17:05:24 10° ESE
Thor Agena Rocket 3.6 16:55:31 10° SSE 17:00:44 88° ENE 17:05:56 10° NNW
CORIOLIS 4.1 16:55:52 10° SSE 17:01:12 79° ENE 17:06:34 10° NNW
UNK 3.8 16:59:03 10° NNE 17:03:35 57° E 17:08:04 10° S
Cosmos 1484 Rocket 3.7 17:01:40 10° S 17:05:04 46° W 17:08:28 10° NNW
Cosmos 1503 Rocket 4.2 17:00:03 10° S 17:05:05 49° ESE 17:09:56 11° NNE
Cosmos 2151 2.8 17:01:12 10° N 17:05:22 72° ENE 17:09:31 10° SSE
Cosmos 1607 4.1 17:00:06 10° NW 17:06:21 78° SW 17:12:37 10° SSE
SMAP 3.0 17:02:54 10° SSE 17:07:34 83° ENE 17:12:15 10° NNW
Cosmos 2180 Rocket 4.4 17:01:49 10° S 17:07:53 71° E 17:14:03 10° NNE
Cosmos 1825 Rocket 3.8 17:06:51 10° N 17:11:03 45° ENE 17:15:11 10° SSE
Lacrosse 5 rocket 1.9 17:08:07 10° W 17:11:38 37° NNW 17:13:51 19° NE
Landsat 7 3.7 17:08:04 10° SSE 17:12:42 73° ENE 17:17:22 10° N
Cosmos 1933 3.7 17:09:32 10° SSE 17:13:06 38° E 17:16:06 14° NNE
Cosmos 1758 Rocket 4.2 17:09:34 10° NNW 17:13:49 58° W 17:18:01 10° S
Cosmos 1354 Rocket 4.4 17:09:08 10° S 17:14:03 42° ESE 17:18:06 15° NE
Cosmos 2227 Rocket 2.2 17:09:27 10° NNW 17:15:05 64° ENE 17:20:41 10° SE
IRIDIUM 104 4.3 17:11:45 10° N 17:17:00 78° E 17:22:13 10° S
CZ-4C R/B 3.0 17:10:13 10° NW 17:17:04 85° SW 17:25:39 10° SE
Cosmos 2098 Rocket 3.2 17:12:56 10° S 17:17:06 83° W 17:22:05 10° N
IGS 5A 4.4 17:13:17 10° S 17:17:07 48° W 17:21:00 10° NNW
SJ-12 3.6 17:13:50 10° SSE 17:17:34 69° ENE 17:21:22 10° N
CENTAUR R/B 3.4 17:12:32 10° WSW 17:18:21 46° NNW 17:24:43 14° NE
Cosmos 2369 Rocket 4.2 17:15:48 10° WNW 17:19:45 19° NW 17:23:44 10° N
NOSS 2-2 (C) 4.2 17:17:22 10° W 17:20:07 28° NW 17:21:58 16° NNE
Cosmos 2360 4.2 17:14:30 10° SSW 17:20:14 87° ESE 17:25:37 12° NNE
Cosmos 2266 Rocket 3.9 17:16:25 10° N 17:22:37 85° E 17:28:41 10° S
Cosmos 1777 Rocket 3.9 17:17:26 10° SSW 17:22:41 78° ESE 17:27:37 12° NNE
ATLAS CENTAUR R/B 3.5 17:20:08 10° WNW 17:22:43 22° WSW 17:25:12 10° S
IRS-1C 4.1 17:17:26 10° SSE 17:22:46 87° ENE 17:28:08 10° NNW
USA 290 3.6 17:19:54 10° NW 17:23:01 42° WSW 17:26:06 10° S
Cosmos 1461 2.7 17:20:29 10° SSW 17:24:20 63° SE 17:26:27 25° NE
IRIDIUM 114 4.3 17:20:53 10° N 17:26:09 89° WSW 17:31:22 10° S
Cosmos 2084 Rocket 3.9 17:23:29 10° NW 17:27:39 61° SW 17:31:48 10° SSE
Cosmos 1697 Rocket 2.8 17:25:46 10° S 17:31:12 55° ESE 17:35:02 20° NE
ERS-1 4.4 17:27:25 10° SSE 17:32:26 88° ENE 17:37:27 10° NNW
Cosmos 2058 Rocket 4.2 17:29:33 10° SE 17:32:46 24° E 17:32:46 24° E
USA 238 DEB 4.3 17:29:14 10° S 17:34:29 31° ESE 17:36:54 24° ENE
USA 238 4.3 17:29:22 10° S 17:34:36 30° ESE 17:36:59 24° E
Cosmos 1076 Rocket 3.6 17:30:35 10° N 17:34:47 50° ENE 17:38:58 10° SSE
CZ-2D R/B 3.1 17:33:22 10° S 17:36:29 65° WSW 17:39:38 10° NNW
CZ-2D R/B 3.7 17:33:06 10° SE 17:37:06 45° ENE 17:41:04 10° N
Meteor 2-10 4.3 17:35:19 10° N 17:40:27 46° ENE 17:45:44 10° SE
PSLV R/B 3.9 17:39:37 31° E 17:40:35 35° ENE 17:44:18 10° N
Cosmos 1486 Rocket 4.4 17:36:03 10° SW 17:41:12 62° WNW 17:46:10 11° NNE
USA 215 3.6 17:38:20 24° ENE 17:42:13 52° N 17:48:32 10° WNW
COSMO-SKYMED 1 3.5 17:44:14 27° ESE 17:44:14 27° ESE 17:47:06 10° SSE
SAR-Lupe-4 4.3 17:40:41 10° S 17:44:10 53° WSW 17:47:40 10° NNW
SL-19 R/B 4.4 17:39:33 10° SE 17:44:43 49° ENE 17:50:11 10° N
SL-16 R/B 3.5 17:40:21 10° N 17:46:15 46° WNW 17:52:06 10° SW
Cosmos 1606 Rocket 3.4 17:42:08 10° S 17:46:32 82° E 17:50:34 13° NNE
Cosmos 1867 4.1 17:41:14 10° NW 17:46:39 62° SW 17:51:59 10° SSE
IRAS Rocket 4.3 17:42:41 10° SE 17:47:57 50° ENE 17:53:14 10° N
AQUARIUS 4.4 17:44:53 10° S 17:49:16 68° WSW 17:53:41 10° NNW
Gbstr 26 Del rocket 3.2 17:46:40 10° SW 17:50:28 42° SSE 17:51:09 38° ESE
Aureole 1 Rocket 3.9 17:49:04 10° SSE 17:53:09 36° E 17:53:31 36° E
NOSS 2-3 (E) 3.5 17:51:23 10° SSW 17:54:52 44° SE 17:54:56 44° ESE
NOSS 2-3 (D) 3.6 17:52:41 10° SSW 17:56:08 42° SE 17:56:08 42° SE
Cosmos 990 Rocket 3.8 17:51:28 10° SSW 17:56:35 78° ESE 17:59:30 26° NNE
Resurs 1-3 3.5 17:53:08 10° SSE 17:57:21 58° ENE 18:01:36 10° N
ARIANE 5 R/B 3.6 17:55:51 10° S 18:00:42 46° W 18:05:40 10° NNW
Cosmos 2082 3.9 17:56:07 10° NNW 18:01:42 50° NE 18:03:40 35° ESE
SJ-7 4.3 18:03:39 56° NNE 18:03:39 56° NNE 18:06:51 10° N
Meteor 2-20 4.3 17:58:36 10° S 18:04:43 71° E 18:10:51 10° NNE
USA 81 3.9 18:00:00 10° N 18:05:16 69° E 18:10:31 10° SSE
Cosmos 1244 Rocket 4.4 18:00:05 10° N 18:06:19 59° ENE 18:12:26 10° SSE
NOAA 6 4.0 18:01:45 10° SE 18:06:43 56° ENE 18:11:43 10° N
Cosmos 2297 Rocket 4.3 18:02:41 10° NW 18:07:26 28° WSW 18:12:11 10° SSW
Cosmos 1680 Rocket 4.4 18:04:21 10° N 18:08:02 31° NNE 18:08:02 31° NNE
MOS 1 Rocket 4.3 18:05:18 10° S 18:10:04 51° W 18:15:09 10° NNW
Cosmos 1726 Rocket 3.7 18:06:30 10° SSW 18:11:09 78° WNW 18:14:23 20° N
Meteor 1-26 Rocket 4.2 18:06:10 10° SSE 18:11:21 49° E 18:11:51 47° ENE
SPOT 1/Viking Rocket 3.8 18:09:01 10° S 18:14:13 72° WSW 18:19:27 10° NNW
SKYMED 2 3.5 18:17:49 43° N 18:19:13 86° WNW 18:23:34 10° SSW
SL-08 R/B 4.4 18:16:31 10° N 18:22:49 66° ENE 18:29:07 10° SSE
YAOGAN 1 2.6 18:19:16 10° S 18:23:31 76° WSW 18:27:48 10° NNW
NOSS 3-2 (A) 4.4 18:19:10 10° W 18:24:13 37° NNW 18:26:56 26° NNE
NOSS 3-2 (C) 3.6 18:19:17 10° WSW 18:24:27 60° NW 18:26:52 35° NNE
Cosmos 2219 3.1 18:20:48 10° NNW 18:26:35 84° ENE 18:29:21 32° SSE
Meteor 2-20 Rocket 4.3 18:20:26 10° S 18:26:38 74° E 18:30:25 24° NNE
Cosmos 1386 Rocket 4.4 18:22:44 10° N 18:28:42 54° ENE 18:28:45 54° ENE
Cosmos 1655 Rocket 4.5 18:23:00 10° NNW 18:29:07 60° W 18:35:13 10° S
Cosmos-2242 3.9 18:28:11 10° S 18:30:52 39° S 18:30:52 39° S
Cosmos 1980 Rocket 2.0 18:28:31 10° SSW 18:34:09 76° ESE 18:34:49 67° ENE
Cosmos 1844 Rocket 3.7 18:32:07 10° NNW 18:35:46 32° NNE 18:35:46 32° NNE
BREEZE-M DEB (TANK) 4.3 18:32:03 10° SSW 18:37:39 31° SSE 18:37:39 31° SSE
Resurs 01 Rocket 4.1 18:46:05 11° N 18:46:05 11° N 18:46:18 10° N
Cosmos 2263 Rocket 2.9 18:38:53 10° NW 18:44:24 53° WSW 18:49:54 10° S
Cosmos 2369 4.3 18:39:16 10° S 18:43:15 42° SSE 18:43:15 42° SSE
Lacrosse 5 rocket 3.4 18:46:01 10° WNW 18:47:26 19° NW 18:47:26 19° NW
Cosmos 2227 Rocket 4.3 18:54:08 10° NW 18:58:41 26° WSW 19:03:14 10° SSW
Cosmos 1898 Rocket 4.3 19:03:18 10° SSW 19:06:54 45° SW 19:06:54 45° SW
Cosmos 2058 Rocket 4.5 19:06:35 10° SW 19:09:57 37° WSW 19:09:57 37° WSW
CENTAUR R/B 4.0 19:04:49 10° WNW 19:10:50 31° N 19:11:48 30° NNE
USA 281 4.3 19:13:26 31° N 19:13:26 31° N 19:17:01 10° NNW
Cosmos 1697 Rocket 4.0 19:10:23 10° WSW 19:15:26 33° NW 19:16:45 30° NNW
USA 238 DEB 3.7 19:18:38 10° SW 19:24:21 68° WNW 19:24:21 68° WNW
USA 215 3.4 19:25:40 67° NNW 19:25:40 67° NNW 19:31:27 10° WNW
USA 238 3.7 19:18:44 10° SW 19:24:27 68° WNW 19:24:27 68° WNW
Cosmos 1980 Rocket 4.4 20:14:00 10° W 20:16:36 21° WNW 20:16:36 21° WNW
